GSAT0208 (GALILEO 11)

Last updated on Jan. 14, 2021, 6:41 a.m. UTC

1 41175U 15079B   21013.36642863  .00000010  00000-0  00000-0 0  9996
2 41175  55.0281 155.7026 0001940 339.1585  20.7689  1.70473542 31598
UTC
Height (km)
Latitude
Longitude
Inclination
Orbital Period
UTC large
Height (km)
Speed (km/s)
/
Latitude / Longitude
Inclination (degrees)
Orbital Period (minutes)
Azimuth
Elevation
Range (km)
Doppler Factor
iOS Compass Heading
iOS Angle

Next 30 passes for location: Hong Kong

Rise time Rise Azimuth (degrees) Set time Set Azimuth (degrees) Duration Max altitude (degrees)

No matching passes for this satellites